N1OTX Weather Reports


time (UTC)temp
C
wind
direction
speed
KPH
gust
KPH
rain 1hr
cm
rain 24hr
cm
rain mn
cm
humidity
%
barometer
mb
20240521032008 12 0.0 0.0 0.00 0.00 0.00 90 1016.4
20240521031508 11 0.0 3.2 0.00 0.00 0.00 90 1016.4
20240521031008 11 0.0 3.2 0.00 0.00 0.00 90 1016.5
20240521030508 11 0.0 0.0 0.00 0.00 0.00 89 1016.5
20240521030038 11 0.0 0.0 0.00 0.00 0.00 89 1016.6
20240521025508 11 0.0 1.6 0.00 0.00 0.00 89 1016.6
20240521025038 11 0.0 3.2 0.00 0.00 0.00 89 1016.7
20240521024508 11 0.0 0.0 0.00 0.00 0.00 89 1016.7
20240521024010 11 0.0 0.0 0.00 0.00 0.00 89 1016.7
20240521023510 11 0.0 0.0 0.00 0.00 0.00 89 1016.7
20240521023010 11 0.0 0.0 0.00 0.00 0.00 89 1016.7
20240521022510 11 0.0 0.0 0.00 0.00 0.00 89 1016.6
20240521022010 11 0.0 0.0 0.00 0.00 0.00 89 1016.5
20240521021510 11 0.0 0.0 0.00 0.00 0.00 88 1016.6
20240521021010 11 0.0 0.0 0.00 0.00 0.00 88 1016.5
20240521020510 11 0.0 0.0 0.00 0.00 0.00 88 1016.4
20240521020010 11 0.0 0.0 0.00 0.00 0.00 88 1016.4
20240521015510 11 0.0 0.0 0.00 0.00 0.00 88 1016.5
20240521015010 11 0.0 0.0 0.00 0.00 0.00 87 1016.5
20240521014510 11 0.0 0.0 0.00 0.00 0.00 87 1016.5
20240521014010 12 0.0 0.0 0.00 0.00 0.00 87 1016.6
20240521013510 12 0.0 0.0 0.00 0.00 0.00 87 1016.5
20240521013010 12 0.0 0.0 0.00 0.00 0.00 86 1016.6
20240521012510 12 0.0 0.0 0.00 0.00 0.00 86 1016.6
20240521012010 12 0.0 0.0 0.00 0.00 0.00 86 1016.5
20240521011510 12 0.0 0.0 0.00 0.00 0.00 86 1016.5
20240521011010 12 0.0 1.6 0.00 0.00 0.00 85 1016.5
20240521010510 12 0.0 3.2 0.00 0.00 0.00 85 1016.3
20240521010010 12 0.0 0.0 0.00 0.00 0.00 84 1016.3
20240521005510 12 158 1.6 6.4 0.00 0.00 0.00 84 1016.2
20240521005040 12 0.0 8.0 0.00 0.00 0.00 84 1016.1
20240521004510 13 135 1.6 4.8 0.00 0.00 0.00 83 1016.1
20240521004010 13 135 1.6 6.4 0.00 0.00 0.00 83 1016.0
20240521003510 13 135 3.2 6.4 0.00 0.00 0.00 83 1015.9
20240521003010 13 135 1.6 4.8 0.00 0.00 0.00 83 1016.0
20240521002510 13 90 1.6 4.8 0.00 0.00 0.00 83 1016.0
20240521002010 13 135 1.6 6.4 0.00 0.00 0.00 83 1016.0
20240521001510 13 135 1.6 4.8 0.00 0.00 0.00 82 1016.1
20240521001010 13 135 3.2 8.0 0.00 0.00 0.00 82 1016.1
20240521000510 13 90 1.6 6.4 0.00 0.00 0.00 82 1016.1
20240521000010 13 158 3.2 11.3 0.00 0.00 0.00 82 1016.0
20240520235510 13 158 3.2 11.3 0.00 0.00 0.00 81 1016.0
20240520235010 13 158 4.8 8.0 0.00 0.00 0.00 81 1016.1
20240520234510 14 135 1.6 8.0 0.00 0.00 0.00 81 1016.1
20240520234010 14 135 6.4 12.9 0.00 0.00 0.00 80 1016.1
20240520233510 14 158 4.8 9.7 0.00 0.00 0.00 80 1016.2
20240520233010 14 158 4.8 9.7 0.00 0.00 0.00 80 1016.3
20240520232510 15 135 4.8 11.3 0.00 0.00 0.00 79 1016.3
20240520232010 15 113 3.2 8.0 0.00 0.00 0.00 79 1016.4
20240520231510 15 135 4.8 8.0 0.00 0.00 0.00 78 1016.4
20240520231010 15 113 6.4 11.3 0.00 0.00 0.00 78 1016.4
20240520230510 15 135 6.4 12.9 0.00 0.00 0.00 78 1016.5
20240520230010 15 135 4.8 11.3 0.00 0.00 0.00 78 1016.4
20240520225540 15 135 4.8 9.7 0.00 0.00 0.00 78 1016.3
20240520225010 15 135 6.4 12.9 0.00 0.00 0.00 78 1016.4
20240520224510 15 203 4.8 12.9 0.00 0.00 0.00 77 1016.3
20240520224010 16 135 6.4 11.3 0.00 0.00 0.00 77 1016.3
20240520223510 16 158 4.8 12.9 0.00 0.00 0.00 77 1016.5
20240520223040 16 158 8.0 12.9 0.00 0.00 0.00 77 1016.5
20240520222510 16 135 4.8 11.3 0.00 0.00 0.00 77 1016.5
20240520222010 16 135 6.4 11.3 0.00 0.00 0.00 76 1016.4
20240520221540 16 158 8.0 14.5 0.00 0.00 0.00 76 1016.4
20240520221010 16 135 6.4 12.9 0.00 0.00 0.00 76 1016.5
20240520220510 16 135 6.4 12.9 0.00 0.00 0.00 75 1016.5
20240520220010 16 135 6.4 12.9 0.00 0.00 0.00 75 1016.5
20240520215540 17 135 6.4 12.9 0.00 0.00 0.00 75 1016.5
20240520215040 17 135 4.8 9.7 0.00 0.00 0.00 75 1016.6
20240520214540 17 158 4.8 14.5 0.00 0.00 0.00 75 1016.6
20240520214009 17 158 6.4 11.3 0.00 0.00 0.00 75 1016.6
20240520213540 17 158 6.4 14.5 0.00 0.00 0.00 75 1016.6
20240520213010 17 158 4.8 9.7 0.00 0.00 0.00 74 1016.6
20240520212540 17 90 4.8 14.5 0.00 0.00 0.00 74 1016.6
20240520212010 17 158 4.8 11.3 0.00 0.00 0.00 75 1016.6
20240520211510 17 158 6.4 12.9 0.00 0.00 0.00 74 1016.6
20240520211010 17 135 8.0 14.5 0.00 0.00 0.00 74 1016.7
20240520210540 17 158 6.4 12.9 0.00 0.00 0.00 74 1016.8
20240520210009 17 158 6.4 12.9 0.00 0.00 0.00 73 1016.8
20240520205510 17 203 4.8 11.3 0.00 0.00 0.00 74 1016.8
20240520205040 17 135 4.8 12.9 0.00 0.00 0.00 74 1016.8
20240520204510 17 158 6.4 12.9 0.00 0.00 0.00 73 1016.8
20240520204110 17 158 6.4 11.3 0.00 0.00 0.00 72 1016.6
20240520203540 18 158 6.4 14.5 0.00 0.00 0.00 72 1016.8
20240520203010 18 158 6.4 12.9 0.00 0.00 0.00 72 1016.9
20240520202540 17 158 4.8 12.9 0.00 0.00 0.00 71 1017.0
20240520202010 18 158 8.0 16.1 0.00 0.00 0.00 71 1017.0
20240520201510 18 113 8.0 16.1 0.00 0.00 0.00 71 1016.9
20240520201040 18 113 6.4 12.9 0.00 0.00 0.00 71 1017.0
20240520200510 18 135 8.0 16.1 0.00 0.00 0.00 70 1017.0
20240520200110 18 135 6.4 14.5 0.00 0.00 0.00 71 1017.0
20240520195540 18 158 6.4 14.5 0.00 0.00 0.00 71 1017.0
20240520195009 18 158 6.4 14.5 0.00 0.00 0.00 70 1017.1
20240520194512 18 158 3.2 8.0 0.00 0.00 0.00 72 1017.1
20240520194040 18 158 4.8 11.3 0.00 0.00 0.00 71 1017.1
20240520193509 18 158 6.4 14.5 0.00 0.00 0.00 72 1017.1
20240520193009 18 135 6.4 16.1 0.00 0.00 0.00 73 1017.2
20240520192509 18 135 6.4 12.9 0.00 0.00 0.00 71 1017.3
20240520192009 18 135 6.4 14.5 0.00 0.00 0.00 71 1017.4
20240520191510 18 180 4.8 11.3 0.00 0.00 0.00 70 1017.4
20240520191009 18 135 4.8 12.9 0.00 0.00 0.00 72 1017.4
20240520190510 18 135 8.0 17.7 0.00 0.00 0.00 71 1017.6
20240520190009 18 135 6.4 12.9 0.00 0.00 0.00 70 1017.7
20240520185540 18 113 8.0 14.5 0.00 0.00 0.00 70 1017.6
20240520185010 18 135 6.4 12.9 0.00 0.00 0.00 71 1017.4
20240520184539 18 135 6.4 14.5 0.00 0.00 0.00 71 1017.6
20240520184009 18 158 6.4 12.9 0.00 0.00 0.00 73 1017.7
20240520183509 18 113 6.4 12.9 0.00 0.00 0.00 73 1017.7
20240520183240 18 158 6.4 14.5 0.00 0.00 0.00 72 1017.7
20240520182510 18 135 8.0 14.5 0.00 0.00 0.00 72 1017.7
20240520182009 18 135 8.0 17.7 0.00 0.00 0.00 72 1017.8
20240520181509 18 135 6.4 14.5 0.00 0.00 0.00 71 1017.8
20240520181010 18 158 6.4 16.1 0.00 0.00 0.00 71 1017.7
20240520180539 18 135 6.4 16.1 0.00 0.00 0.00 72 1017.8
20240520180009 18 90 6.4 17.7 0.00 0.00 0.00 72 1017.7
20240520175539 18 90 4.8 14.5 0.00 0.00 0.00 73 1017.7
20240520175009 18 90 4.8 12.9 0.00 0.00 0.00 71 1017.7
20240520174509 18 158 4.8 11.3 0.00 0.00 0.00 73 1017.7
20240520174010 18 158 4.8 12.9 0.00 0.00 0.00 73 1017.7
20240520173509 18 158 4.8 16.1 0.00 0.00 0.00 72 1017.7
20240520173009 18 90 4.8 16.1 0.00 0.00 0.00 75 1017.8
20240520172509 18 90 8.0 16.1 0.00 0.00 0.00 74 1017.8
20240520172040 18 113 4.8 9.7 0.00 0.00 0.00 74 1017.8
20240520171540 18 113 4.8 12.9 0.00 0.00 0.00 74 1017.7
20240520171009 18 158 4.8 11.3 0.00 0.00 0.00 75 1017.7
20240520170509 18 113 4.8 11.3 0.00 0.00 0.00 74 1017.7
20240520170009 18 113 4.8 11.3 0.00 0.00 0.00 73 1017.8
20240520165509 18 135 4.8 12.9 0.00 0.00 0.00 72 1017.9
20240520164540 17 135 1.6 4.8 0.00 0.00 0.00 74 1017.9
20240520164040 17 135 3.2 11.3 0.00 0.00 0.00 76 1018.0
20240520163509 17 203 3.2 6.4 0.00 0.00 0.00 78 1018.1
20240520163039 16 180 3.2 8.0 0.00 0.00 0.00 77 1018.3
20240520162509 16 113 3.2 9.7 0.00 0.00 0.00 78 1018.3
20240520162009 16 0 1.6 6.4 0.00 0.00 0.00 77 1018.4
20240520161540 16 0.0 3.2 0.00 0.00 0.00 79 1018.4
20240520161009 16 0.0 0.0 0.00 0.00 0.00 80 1018.4
20240520160509 16 0.0 1.6 0.00 0.00 0.00 78 1018.5
20240520160009 16 45 1.6 3.2 0.00 0.00 0.00 79 1018.5
20240520155509 15 23 1.6 3.2 0.00 0.00 0.00 78 1018.4
20240520155009 15 90 1.6 4.8 0.00 0.00 0.00 79 1018.5
20240520154509 15 90 3.2 6.4 0.00 0.00 0.00 79 1018.5
20240520154009 15 90 1.6 6.4 0.00 0.00 0.00 79 1018.7
20240520153509 15 90 3.2 6.4 0.00 0.00 0.00 80 1018.7
20240520153009 15 0.0 1.6 0.00 0.00 0.00 81 1018.7
20240520152509 15 90 1.6 4.8 0.00 0.00 0.00 80 1018.6
20240520152009 15 90 1.6 3.2 0.00 0.00 0.00 80 1018.7
20240520151510 15 90 3.2 8.0 0.00 0.00 0.00 80 1018.6
20240520151009 15 135 4.8 9.7 0.00 0.00 0.00 81 1018.6
20240520150509 15 293 1.6 8.0 0.00 0.00 0.00 83 1018.4
20240520150009 15 0.0 1.6 0.00 0.00 0.00 82 1018.3
20240520145509 15 68 1.6 4.8 0.00 0.00 0.00 81 1018.2
20240520145009 15 90 1.6 6.4 0.00 0.00 0.00 82 1018.1
20240520144509 15 113 3.2 9.7 0.00 0.00 0.00 82 1018.2
20240520144009 14 68 4.8 9.7 0.00 0.00 0.00 82 1018.3
20240520143509 14 23 1.6 4.8 0.00 0.00 0.00 83 1018.2
20240520143040 14 158 3.2 8.0 0.00 0.00 0.00 83 1018.1
20240520142510 14 158 3.2 9.7 0.00 0.00 0.00 83 1018.0
20240520142009 14 0.0 4.8 0.00 0.00 0.00 83 1018.2
20240520141539 14 0 1.6 3.2 0.00 0.00 0.00 84 1018.3
20240520141039 13 338 1.6 4.8 0.00 0.00 0.00 84 1018.2
20240520140509 13 0 1.6 6.4 0.00 0.00 0.00 84 1018.2
20240520140009 13 0 1.6 4.8 0.00 0.00 0.00 84 1018.3
20240520135509 13 0 1.6 4.8 0.00 0.00 0.00 84 1018.4
20240520135009 13 90 3.2 6.4 0.00 0.00 0.00 85 1018.4
20240520134509 13 45 1.6 4.8 0.00 0.00 0.00 85 1018.4
20240520134009 13 45 1.6 6.4 0.00 0.00 0.00 85 1018.6
20240520133509 13 315 1.6 1.6 0.00 0.00 0.00 85 1018.6
20240520133009 13 315 1.6 3.2 0.00 0.00 0.00 85 1018.7
20240520132509 13 68 1.6 4.8 0.00 0.00 0.00 85 1018.8
20240520132009 13 68 1.6 4.8 0.00 0.00 0.00 86 1018.7
20240520131509 13 68 1.6 6.4 0.00 0.00 0.00 86 1018.7
20240520131009 13 0.0 3.2 0.00 0.00 0.00 86 1018.7
20240520130509 13 90 1.6 6.4 0.00 0.00 0.00 86 1018.6
20240520130009 13 90 3.2 8.0 0.00 0.00 0.00 87 1018.7
20240520125509 13 158 1.6 6.4 0.00 0.00 0.00 88 1018.7
20240520125009 12 68 1.6 4.8 0.00 0.00 0.00 88 1018.6
20240520124509 12 90 1.6 3.2 0.00 0.00 0.00 89 1018.7
20240520124009 12 90 1.6 6.4 0.00 0.00 0.00 89 1018.7
20240520123509 12 23 1.6 4.8 0.00 0.00 0.00 89 1018.7
20240520123009 12 0 1.6 6.4 0.00 0.00 0.00 89 1018.7
20240520122509 12 23 1.6 6.4 0.00 0.00 0.00 90 1018.7
20240520122039 12 338 1.6 4.8 0.00 0.00 0.00 90 1018.6
20240520121509 12 45 1.6 8.0 0.00 0.00 0.00 90 1018.5
20240520121009 12 45 1.6 3.2 0.00 0.00 0.00 91 1018.6
20240520120539 12 0.0 3.2 0.00 0.00 0.00 91 1018.4
20240520120009 12 0.0 3.2 0.00 0.00 0.00 91 1018.5
20240520115509 11 0.0 4.8 0.00 0.00 0.00 91 1018.5
20240520115009 11 0.0 1.6 0.00 0.00 0.00 91 1018.6
20240520114509 11 23 1.6 3.2 0.00 0.00 0.00 91 1018.5
20240520114009 11 45 1.6 3.2 0.00 0.00 0.00 91 1018.4
20240520113509 11 0.0 4.8 0.00 0.00 0.00 91 1018.3
20240520113039 11 0.0 1.6 0.00 0.00 0.00 91 1018.2
20240520112509 11 90 1.6 4.8 0.00 0.00 0.00 91 1018.2
20240520112009 11 45 1.6 4.8 0.00 0.00 0.00 91 1018.3
20240520111509 11 68 1.6 8.0 0.00 0.00 0.00 91 1018.2
20240520111009 11 0.0 3.2 0.00 0.00 0.00 91 1018.2
20240520110509 11 0.0 1.6 0.00 0.00 0.00 91 1018.2
20240520110009 11 0.0 3.2 0.00 0.00 0.00 92 1018.2
20240520105509 11 0.0 1.6 0.00 0.00 0.00 92 1018.2
20240520105009 11 0.0 3.2 0.00 0.00 0.00 92 1018.2
20240520104509 11 0.0 0.0 0.00 0.00 0.00 92 1018.0
20240520104039 11 0.0 0.0 0.00 0.00 0.00 92 1017.9
20240520103509 10 0.0 0.0 0.00 0.00 0.00 92 1017.9
20240520103009 10 0.0 1.6 0.00 0.00 0.00 92 1018.1
20240520102509 10 0.0 1.6 0.00 0.00 0.00 92 1018.0
20240520102039 10 0.0 3.2 0.00 0.00 0.00 92 1018.0
20240520101508 10 0.0 1.6 0.00 0.00 0.00 92 1017.9
20240520101009 10 0.0 3.2 0.00 0.00 0.00 92 1017.9
20240520100508 10 0.0 1.6 0.00 0.03 0.00 92 1018.0
20240520100109 10 0.0 1.6 0.00 0.03 0.00 92 1017.9
20240520095508 10 0.0 1.6 0.00 0.03 0.00 92 1017.9
20240520095009 10 0.0 0.0 0.00 0.03 0.00 92 1017.9
20240520094539 10 0.0 0.0 0.00 0.03 0.00 92 1017.8
20240520094109 10 0.0 0.0 0.00 0.03 0.00 92 1017.9
20240520093538 9 0.0 0.0 0.00 0.03 0.00 92 1017.8
20240520093009 9 0.0 0.0 0.00 0.03 0.00 92 1017.7
20240520092509 9 0.0 0.0 0.00 0.03 0.00 92 1017.7
20240520092008 9 0.0 0.0 0.00 0.03 0.00 92 1017.7
20240520091508 9 0.0 0.0 0.00 0.03 0.00 92 1017.8
20240520091009 9 0.0 0.0 0.00 0.03 0.00 92 1017.8
20240520090539 8 0.0 0.0 0.00 0.03 0.00 92 1017.8
20240520090008 8 0.0 0.0 0.00 0.03 0.00 92 1017.8
20240520085508 8 0.0 0.0 0.00 0.03 0.00 92 1017.8
20240520085008 8 0.0 0.0 0.00 0.03 0.00 92 1017.7
20240520084508 8 0.0 0.0 0.00 0.03 0.00 92 1017.7
20240520084009 8 0.0 0.0 0.00 0.03 0.00 92 1017.8
20240520083508 8 0.0 0.0 0.00 0.03 0.00 92 1017.8
20240520083009 8 0.0 0.0 0.00 0.03 0.00 92 1017.7
20240520082509 8 0.0 0.0 0.00 0.03 0.00 92 1017.7
20240520082008 8 0.0 0.0 0.00 0.03 0.00 92 1017.7
20240520081508 7 0.0 0.0 0.00 0.03 0.00 92 1017.6
20240520081008 7 0.0 0.0 0.00 0.03 0.00 92 1017.7
20240520080508 7 0.0 0.0 0.00 0.03 0.00 92 1017.8
20240520080039 7 0.0 0.0 0.00 0.05 0.00 92 1017.7
20240520075509 7 0.0 0.0 0.00 0.05 0.00 92 1017.7
20240520075008 8 0.0 0.0 0.00 0.05 0.00 92 1017.7
20240520074508 8 0.0 0.0 0.00 0.05 0.00 92 1017.8
20240520074008 7 0.0 0.0 0.00 0.05 0.00 92 1017.6
20240520073508 7 0.0 0.0 0.00 0.05 0.00 92 1017.5
20240520073009 7 0.0 0.0 0.00 0.05 0.00 92 1017.5
20240520072508 7 0.0 0.0 0.00 0.05 0.00 92 1017.4
20240520072008 7 0.0 0.0 0.00 0.05 0.00 92 1017.4
20240520071508 8 0.0 0.0 0.00 0.05 0.00 92 1017.5
20240520071009 7 0.0 0.0 0.00 0.05 0.00 92 1017.4
20240520070508 7 0.0 0.0 0.00 0.05 0.00 92 1017.3
20240520070008 7 0.0 0.0 0.00 0.05 0.00 92 1017.4
20240520065508 7 0.0 0.0 0.00 0.05 0.00 92 1017.4
20240520065008 8 0.0 0.0 0.00 0.05 0.00 91 1017.4
20240520064508 8 0.0 0.0 0.00 0.05 0.00 91 1017.5
20240520064008 8 0.0 0.0 0.00 0.05 0.00 91 1017.6
20240520063508 8 0.0 0.0 0.00 0.05 0.00 91 1017.7
20240520063008 8 0.0 0.0 0.00 0.05 0.00 91 1017.7
20240520062508 8 0.0 0.0 0.00 0.05 0.00 91 1017.8
20240520062008 8 0.0 0.0 0.00 0.05 0.00 92 1017.9
20240520061508 8 0.0 0.0 0.00 0.05 0.00 92 1017.9
20240520061008 8 0.0 0.0 0.00 0.05 0.00 92 1017.9
20240520060609 8 0.0 0.0 0.00 0.05 0.00 91 1017.8
20240520060008 8 0.0 0.0 0.00 0.05 0.00 91 1017.9
20240520055508 8 0.0 0.0 0.00 0.05 0.00 91 1017.8
20240520055008 8 0.0 0.0 0.00 0.05 0.00 91 1017.8
20240520054508 8 0.0 0.0 0.00 0.05 0.00 91 1017.8
20240520054008 9 0.0 0.0 0.00 0.05 0.00 91 1017.9
20240520053508 9 0.0 0.0 0.00 0.05 0.00 91 1017.9
20240520053008 9 0.0 0.0 0.00 0.05 0.00 91 1018.0
20240520052508 9 0.0 0.0 0.00 0.05 0.00 92 1018.0
20240520052009 8 0.0 0.0 0.00 0.05 0.00 91 1018.1
20240520051508 8 0.0 0.0 0.00 0.05 0.00 91 1018.1
20240520051008 8 0.0 0.0 0.00 0.05 0.00 91 1018.1
20240520050508 8 0.0 0.0 0.00 0.05 0.00 91 1018.2
20240520050038 8 0.0 0.0 0.00 0.05 0.00 91 1018.0
20240520045508 8 0.0 0.0 0.00 0.05 0.00 91 1018.1
20240520045008 8 0.0 0.0 0.00 0.05 0.00 91 1018.1
20240520044538 8 0.0 0.0 0.00 0.05 0.00 91 1018.1
20240520044008 8 0.0 0.0 0.00 0.05 0.00 91 1018.0
20240520043508 8 0.0 0.0 0.00 0.05 0.00 91 1018.0
20240520043010 8 0.0 0.0 0.00 0.05 0.00 91 1018.0
20240520042510 8 0.0 0.0 0.00 0.05 0.00 91 1018.0
20240520042010 8 0.0 0.0 0.00 0.05 0.00 91 1017.9
20240520041510 8 0.0 0.0 0.00 0.05 0.00 91 1018.0
20240520041110 8 0.0 0.0 0.00 0.05 0.00 91 1018.0
20240520040510 8 0.0 0.0 0.00 0.05 0.00 91 1017.9
20240520040009 8 0.0 0.0 0.00 0.05 0.05 91 1018.0
20240520035540 8 0.0 0.0 0.00 0.05 0.05 91 1017.9
20240520035010 8 0.0 0.0 0.00 0.05 0.05 90 1017.8
20240520034540 8 0.0 0.0 0.00 0.05 0.05 91 1017.9
20240520034040 8 0.0 0.0 0.00 0.05 0.05 91 1018.0
20240520033510 9 0.0 0.0 0.00 0.05 0.05 90 1018.1
20240520033010 9 0.0 0.0 0.00 0.05 0.05 90 1018.2
20240520032510 9 0.0 0.0 0.00 0.08 0.05 90 1018.2